Regional Weather Roundup
Issued by NWS

Home | Current Version | Previous Version | Graphics & Text | Print | Product List | Glossary On
Versions: 1 2 3 4 5 6 7 8 9 10 11 12 13 14 15 16 17 18 19 20 21 22 23 24 25 26 27 28 29 30 31 32 33 34 35 36 37 38 39 40 41 42 43 44 45 46 47 48 49 50
540
ASUS44 KJAN 171603
RWRMS

MISSISSIPPI HOURLY WEATHER ROUNDUP
NATIONAL WEATHER SERVICE JACKSON MS
1100 AM CDT THU APR 17 2014

NOTE: "FAIR: INDICATES FEW OR NO CLOUDS BELOW 12,000 FEET WITH NO
SIGNIFICANT WEATHER AND/OR OBSTRUCTIONS TO VISIBILITY.

MSZ001>002-007>008-010>013-018>021-025>028-034>036-171700-
NORTHWEST MISSISSIPPI

CITY           SKY/WX    TMP DP  RH WIND       PRES   REMARKS
CLARKSDALE       N/A     61  46  59 SE9       30.30S
CLEVELAND      FAIR      60  47  61 SE9G16    30.27S
GREENWOOD      MOSUNNY   62  46  55 VRB6      30.28F
GREENVILLE     MOSUNNY   62  45  53 SE10      30.26S
GRENADA        FAIR      61  46  59 E9        30.31S
OLIVE BRANCH   PTSUNNY   61  45  55 S8G16     30.31S
OXFORD         FAIR      59  41  51 SW7       30.33R
TUNICA         SUNNY     61  45  55 SE10      30.30F
$$

MSZ003>006-009-014>017-022>024-029>033-037>039-171700-
NORTHEAST MISSISSIPPI

CITY           SKY/WX    TMP DP  RH WIND       PRES   REMARKS
BELMONT        FAIR      60  42  51 S6        30.34S
COLUMBUS AFB   SUNNY     63  44  50 E9        30.33R
CORINTH        FAIR      63  39  42 S10       30.34R
GOLDN TRIANGLE SUNNY     59  43  55 SE9       30.36R
STARKVILLE     FAIR      59  46  63 SE10      30.32S
TUPELO         SUNNY     60  43  53 S10       30.33R
$$

MSZ040-058-171700-
CENTRAL MISSISSIPPI

CITY           SKY/WX    TMP DP  RH WIND       PRES   REMARKS
JACKSON INTL   MOSUNNY   63  47  55 E7        30.24F
JACKSON HAWKNS SUNNY     64  46  52 VRB6      30.24F
MERIDIAN KEY   CLOUDY    58  47  66 VRB3      30.29F
MERIDIAN NAS   CLOUDY    59  46  62 E9G20     30.31S
RAYMOND        FAIR      63  57  82 SE6       30.24F
VICKSBURG      SUNNY     63  48  58 E8        30.23F
$$

MSZ059>079-171700-
SOUTH MISSISSIPPI

CITY           SKY/WX    TMP DP  RH WIND       PRES   REMARKS
BROOKHAVEN     FAIR      63  52  67 E6        30.23F
COLUMBIA       CLOUDY    59  52  77 MISG      30.22S
HATTIESBURG    CLOUDY    59  51  75 E7        30.25S
MCCOMB         PTSUNNY   62  51  67 E7        30.22R
NATCHEZ        MOSUNNY   63  50  63 E8        30.21S
PINE BELT      CLOUDY    57  48  72 NE9       30.25S
$$

MSZ080>082-171700-
COASTAL MISSISSIPPI

CITY           SKY/WX    TMP DP  RH WIND       PRES   REMARKS
BAY ST LOUIS   CLOUDY    64  54  68 E9G16     30.20S
BILOXI         CLOUDY    63  56  76 E16       30.20F
PASCAGOULA     CLOUDY    65  55  70 E12       30.22S
GULFPORT       CLOUDY    66  55  67 E17       30.20F
$$



USA.gov is the U.S. government's official web portal to all federal, state and local government web resources and services.